THORAD DELTA 1 DEB, 8173

Orbit data source: Space-Track

THORAD DELTA 1 DEB, 8173 is space debris in SSO originally from a launch on Fri, 15 Nov 1974 UTC launched from the Air Force Western Test Range (AFWTR). Debris objects in space refer to the collection of defunct objects orbiting the Earth. Examples of debris include non-operational satellites, rocket bodies, and fragments generated from explosions, collisions, or faulty payload assembly.

Loading next visibility...
Identifier
8173, 1974-089AP
Orbit
SSO
Country
Flag of USUS
Related business
Manufacturer
Unknown
Mission
Spacecraft
Bus & Motor
Unknown
Mass
Unknown
Launch date (UTC)
1974-11-15 (51 years ago)
Launch vehicle
Unknown
Launch site
Air Force Western Test Range (AFWTR)
Object type
Payload
Rocket body
Debris
Shape & HBR
Unknown shape, 0.1 m
Radar Cross Section
Small (<0.1 m²)

Expand to show TLE details & history
Last TLE update: 19 hours ago

TLE from 19 hours ago
0 THORAD DELTA 1 DEB
1  8173U 74089AP  25310.86682337  .00000037  00000-0  52176-3 0  9995
2  8173 101.9664 286.9476 0107820 190.0850 200.8906 12.51846971327170
Epoch: 2025-11-06T20:48Z
TLE epoch observation values (Epoch: 2025-11-06T20:48:13.539Z)
Latitude
29.85669°
Longitude
-78.3816°
Altitude
1,539.268 km
Speed
7.063 km/s
True Right ascension
18h 39m 58s
True Declination
29° 43' 23"
Sunlit
Object was in daylight at epoch
Visualization orbit readout
Latitude
Unknown
Longitude
Unknown
Altitude
Unknown
Speed
Unknown
Apparent Right ascension
Unknown
Apparent Declination
Unknown
Sunlit
N/A
Visualization observer readout
Local Sidereal Time
11:55:39
Azimuth
Unknown
Elevation
Unknown
Doppler factor
Unknown
Orbital elements
Apogee altitude
1,538.786 km
Perigee altitude
1,369.886 km
Semi-major axis
7,832.473 km
Eccentricity
0.01078
Inclination
101.9664°
RAAN
286.9476°
Arg. of periapsis
190.085°
True anomaly
200.45552°
Mean anomaly
200.8906°
Eccentric anomaly
200.67251°
Mean motion
3.13108 °/min
Orbital period
114.98 mins
BSTAR
0.00052176
Loading maneuver chart data...
Computing Atmospheric mass density...

Documentation

Showing up to 5 results
|